Torna al catalogo

KONDOR FKA 2

AttivoMilitareSSO
NORAD 62138·PAYLOAD·🇷🇺 Russia

Lanciato Nov 29, 2024 da Vostochny Cosmodrome

Loading…

Prossimi Passaggi (prossime 24 ore)

TLE

AggiornatoSource: Space-Track

Epoca: Sep 14, 2026, 20:35 UTC

1 62138U 24223A   26257.85787051  .00002933  00000-0  14049-3 0  9994
2 62138  97.4428 100.0093 0001769  88.6581 271.4857 15.19715420 99320

Traccia KONDOR FKA 2 in tempo reale con AllMySat

Download on the App Store